Time,TemperatureF,DewpointF,PressureIn,WindDirection,WindDirectionDegrees,WindSpeedMPH,WindSpeedGustMPH,Humidity,HourlyPrecipIn,Conditions,Clouds,dailyrainin,SolarRadiationWatts/m^2,SoftwareType,DateUTC
2013-08-30 00:04:00,66.0,66.0,-100.00,NW,325,7.0,13.0,100,0.05,,,0.94,1.000000,,2013-08-30 05:04:00,
2013-08-30 00:12:00,66.0,66.0,-100.00,NW,325,7.0,13.0,100,0.05,,,0.94,1.000000,,2013-08-30 05:12:00,
2013-08-30 00:42:00,65.0,65.0,-100.00,NW,316,6.0,13.0,100,0.00,,,0.94,1.000000,,2013-08-30 05:42:00,
2013-08-30 00:52:00,65.0,65.0,-100.00,NW,316,6.0,13.0,100,0.00,,,0.94,1.000000,,2013-08-30 05:52:00,
2013-08-30 01:02:00,65.0,65.0,-100.00,NW,316,6.0,13.0,100,0.00,,,0.94,1.000000,,2013-08-30 06:02:00,
2013-08-30 01:12:00,65.0,65.0,-100.00,NW,316,6.0,13.0,100,0.00,,,0.94,1.000000,,2013-08-30 06:12:00,
2013-08-30 01:42:00,65.0,65.0,-100.00,NW,322,9.0,16.0,100,0.00,,,0.94,1.000000,,2013-08-30 06:42:00,
2013-08-30 01:53:00,65.0,65.0,-100.00,NW,322,9.0,16.0,100,0.00,,,0.94,1.000000,,2013-08-30 06:53:00,
2013-08-30 02:02:00,65.0,65.0,-100.00,NW,322,9.0,16.0,100,0.00,,,0.94,1.000000,,2013-08-30 07:02:00,
2013-08-30 02:12:00,65.0,65.0,-100.00,NW,322,9.0,16.0,100,0.00,,,0.94,1.000000,,2013-08-30 07:12:00,
2013-08-30 02:44:00,64.0,64.0,-100.00,NNW,330,6.0,13.0,100,0.00,,,0.94,1.000000,,2013-08-30 07:44:00,
2013-08-30 02:53:00,64.0,64.0,-100.00,NNW,330,6.0,13.0,100,0.00,,,0.94,1.000000,,2013-08-30 07:53:00,
2013-08-30 03:03:00,64.0,64.0,-100.00,NNW,330,6.0,13.0,100,0.00,,,0.94,1.000000,,2013-08-30 08:03:00,
2013-08-30 03:11:00,64.0,64.0,-100.00,NNW,330,6.0,13.0,100,0.00,,,0.94,1.000000,,2013-08-30 08:11:00,
2013-08-30 03:43:00,64.0,64.0,-100.00,NNW,331,6.0,10.0,100,0.00,,,0.94,1.000000,,2013-08-30 08:43:00,
2013-08-30 03:52:00,64.0,64.0,-100.00,NNW,331,6.0,10.0,100,0.00,,,0.94,1.000000,,2013-08-30 08:52:00,
2013-08-30 04:02:00,64.0,64.0,-100.00,NNW,331,6.0,10.0,100,0.00,,,0.94,1.000000,,2013-08-30 09:02:00,
2013-08-30 04:12:00,64.0,64.0,-100.00,NNW,331,6.0,10.0,100,0.00,,,0.94,1.000000,,2013-08-30 09:12:00,
2013-08-30 04:44:00,64.0,64.0,-100.00,NNW,338,7.0,13.0,100,0.00,,,0.93,1.000000,,2013-08-30 09:44:00,
2013-08-30 04:53:00,64.0,64.0,-100.00,NNW,338,7.0,13.0,100,0.00,,,0.93,1.000000,,2013-08-30 09:53:00,
2013-08-30 05:03:00,64.0,64.0,-100.00,NNW,338,7.0,13.0,100,0.00,,,0.93,1.000000,,2013-08-30 10:03:00,
2013-08-30 05:12:00,64.0,64.0,-100.00,NNW,338,7.0,13.0,100,0.00,,,0.93,1.000000,,2013-08-30 10:12:00,
2013-08-30 05:43:00,63.0,63.0,-100.00,NNW,343,8.0,14.0,100,0.00,,,0.93,1.000000,,2013-08-30 10:43:00,
2013-08-30 05:53:00,63.0,63.0,-100.00,NNW,343,8.0,14.0,100,0.00,,,0.93,1.000000,,2013-08-30 10:53:00,
2013-08-30 06:03:00,63.0,63.0,-100.00,NNW,343,8.0,14.0,100,0.00,,,0.93,1.000000,,2013-08-30 11:03:00,
2013-08-30 06:12:00,63.0,63.0,-100.00,NNW,343,8.0,14.0,100,0.00,,,0.93,1.000000,,2013-08-30 11:12:00,
2013-08-30 06:42:00,63.0,63.0,-100.00,NNW,348,6.0,13.0,100,0.00,,,0.93,1.000000,,2013-08-30 11:42:00,
2013-08-30 06:52:00,63.0,63.0,-100.00,NNW,348,6.0,13.0,100,0.00,,,0.93,1.000000,,2013-08-30 11:52:00,
2013-08-30 07:01:00,63.0,63.0,-100.00,NNW,348,6.0,13.0,100,0.00,,,0.93,1.000000,,2013-08-30 12:01:00,
2013-08-30 07:12:00,63.0,63.0,-100.00,NNW,348,6.0,13.0,100,0.00,,,0.93,1.000000,,2013-08-30 12:12:00,
2013-08-30 07:42:00,63.0,63.0,-100.00,North,1,4.0,11.0,99,0.00,,,0.93,7.000000,,2013-08-30 12:42:00,
2013-08-30 07:52:00,63.0,63.0,-100.00,North,1,4.0,11.0,99,0.00,,,0.93,7.000000,,2013-08-30 12:52:00,
2013-08-30 08:02:00,63.0,63.0,-100.00,North,1,4.0,11.0,99,0.00,,,0.93,7.000000,,2013-08-30 13:02:00,
2013-08-30 08:11:00,63.0,63.0,-100.00,North,1,4.0,11.0,99,0.00,,,0.93,7.000000,,2013-08-30 13:11:00,
2013-08-30 08:42:00,66.0,64.0,-100.00,North,358,3.0,7.0,93,0.00,,,0.93,121.000000,,2013-08-30 13:42:00,
2013-08-30 08:52:00,66.0,64.0,-100.00,North,358,3.0,7.0,93,0.00,,,0.93,121.000000,,2013-08-30 13:52:00,
2013-08-30 09:02:00,66.0,64.0,-100.00,North,358,3.0,7.0,93,0.00,,,0.93,121.000000,,2013-08-30 14:02:00,
2013-08-30 09:11:00,66.0,64.0,-100.00,North,358,3.0,7.0,93,0.00,,,0.93,121.000000,,2013-08-30 14:11:00,
2013-08-30 09:42:00,69.0,64.0,-100.00,NNE,14,3.0,8.0,83,0.00,,,0.93,283.000000,,2013-08-30 14:42:00,
2013-08-30 09:52:00,69.0,64.0,-100.00,NNE,14,3.0,8.0,83,0.00,,,0.93,283.000000,,2013-08-30 14:52:00,
2013-08-30 10:02:00,69.0,64.0,-100.00,NNE,14,3.0,8.0,83,0.00,,,0.93,283.000000,,2013-08-30 15:02:00,
2013-08-30 10:11:00,69.0,64.0,-100.00,NNE,14,3.0,8.0,83,0.00,,,0.93,283.000000,,2013-08-30 15:11:00,
2013-08-30 10:13:00,71.0,63.0,-100.00,NNW,345,5.0,10.0,75,0.00,,,-99.99,509.000000,,2013-08-30 15:13:00,
2013-08-30 10:43:00,71.0,63.0,-100.00,NNW,345,5.0,10.0,75,0.00,,,-99.99,509.000000,,2013-08-30 15:43:00,
2013-08-30 10:54:00,71.0,63.0,-100.00,NNW,345,5.0,10.0,75,0.00,,,-99.99,509.000000,,2013-08-30 15:54:00,
2013-08-30 11:05:00,71.0,63.0,-100.00,NNW,345,5.0,10.0,75,0.00,,,-99.99,509.000000,,2013-08-30 16:05:00,
2013-08-30 11:13:00,76.0,64.0,-100.00,NE,40,3.0,9.0,67,0.00,,,0.93,656.000000,,2013-08-30 16:13:00,
2013-08-30 11:43:00,76.0,64.0,-100.00,NE,40,3.0,9.0,67,0.00,,,0.93,656.000000,,2013-08-30 16:43:00,
2013-08-30 11:53:00,76.0,64.0,-100.00,NE,40,3.0,9.0,67,0.00,,,0.93,656.000000,,2013-08-30 16:53:00,
2013-08-30 12:03:00,76.0,64.0,-100.00,NE,40,3.0,9.0,67,0.00,,,0.93,656.000000,,2013-08-30 17:03:00,
2013-08-30 12:42:00,75.0,61.0,-100.00,East,83,4.0,9.0,62,0.00,,,0.92,600.000000,,2013-08-30 17:42:00,
2013-08-30 12:53:00,75.0,61.0,-100.00,East,83,4.0,9.0,62,0.00,,,0.92,600.000000,,2013-08-30 17:53:00,
2013-08-30 13:02:00,75.0,61.0,-100.00,East,83,4.0,9.0,62,0.00,,,0.92,600.000000,,2013-08-30 18:02:00,
2013-08-30 13:12:00,75.0,61.0,-100.00,East,83,4.0,9.0,62,0.00,,,0.92,600.000000,,2013-08-30 18:12:00,
2013-08-30 13:42:00,79.0,63.0,-100.00,East,85,4.0,9.0,58,0.00,,,0.66,787.000000,,2013-08-30 18:42:00,
2013-08-30 13:52:00,79.0,63.0,-100.00,East,85,4.0,9.0,58,0.00,,,0.66,787.000000,,2013-08-30 18:52:00,
2013-08-30 14:01:00,79.0,63.0,-100.00,East,85,4.0,9.0,58,0.00,,,0.66,787.000000,,2013-08-30 19:01:00,
2013-08-30 14:12:00,79.0,63.0,-100.00,East,85,4.0,9.0,58,0.00,,,0.66,787.000000,,2013-08-30 19:12:00,
2013-08-30 14:42:00,79.0,63.0,-100.00,ENE,57,4.0,10.0,58,0.00,,,0.54,849.000000,,2013-08-30 19:42:00,
2013-08-30 14:53:00,79.0,63.0,-100.00,ENE,57,4.0,10.0,58,0.00,,,0.54,849.000000,,2013-08-30 19:53:00,
2013-08-30 15:03:00,79.0,63.0,-100.00,ENE,57,4.0,10.0,58,0.00,,,0.54,849.000000,,2013-08-30 20:03:00,
2013-08-30 15:11:00,79.0,63.0,-100.00,ENE,57,4.0,10.0,58,0.00,,,0.54,849.000000,,2013-08-30 20:11:00,
2013-08-30 15:43:00,78.0,63.0,-100.00,North,11,4.0,10.0,60,0.00,,,0.52,590.000000,,2013-08-30 20:43:00,
2013-08-30 15:52:00,78.0,63.0,-100.00,North,11,4.0,10.0,60,0.00,,,0.52,590.000000,,2013-08-30 20:52:00,
2013-08-30 16:02:00,78.0,63.0,-100.00,North,11,4.0,10.0,60,0.00,,,0.52,590.000000,,2013-08-30 21:02:00,
2013-08-30 16:11:00,78.0,63.0,-100.00,North,11,4.0,10.0,60,0.00,,,0.52,590.000000,,2013-08-30 21:11:00,
2013-08-30 16:13:00,76.0,63.0,-100.00,ENE,61,3.0,8.0,64,0.00,,,0.52,359.000000,,2013-08-30 21:13:00,
2013-08-30 16:44:00,76.0,63.0,-100.00,ENE,61,3.0,8.0,64,0.00,,,0.52,359.000000,,2013-08-30 21:44:00,
2013-08-30 16:55:00,76.0,63.0,-100.00,ENE,61,3.0,8.0,64,0.00,,,0.52,359.000000,,2013-08-30 21:55:00,
2013-08-30 17:04:00,76.0,63.0,-100.00,ENE,61,3.0,8.0,64,0.00,,,0.52,359.000000,,2013-08-30 22:04:00,
2013-08-30 17:43:00,78.0,64.0,-100.00,NE,51,3.0,9.0,62,0.00,,,0.52,437.000000,,2013-08-30 22:43:00,
2013-08-30 17:54:00,78.0,64.0,-100.00,NE,51,3.0,9.0,62,0.00,,,0.52,437.000000,,2013-08-30 22:54:00,
2013-08-30 18:03:00,78.0,64.0,-100.00,NE,51,3.0,9.0,62,0.00,,,0.52,437.000000,,2013-08-30 23:03:00,
2013-08-30 18:12:00,78.0,64.0,-100.00,NE,51,3.0,9.0,62,0.00,,,0.52,437.000000,,2013-08-30 23:12:00,
2013-08-30 18:42:00,75.0,62.0,-100.00,NNE,27,2.0,7.0,63,0.00,,,0.52,251.000000,,2013-08-30 23:42:00,
2013-08-30 18:53:00,75.0,62.0,-100.00,NNE,27,2.0,7.0,63,0.00,,,0.52,251.000000,,2013-08-30 23:53:00,
2013-08-30 19:02:00,75.0,62.0,-100.00,NNE,27,2.0,7.0,63,0.00,,,0.52,251.000000,,2013-08-31 00:02:00,
2013-08-30 19:11:00,75.0,62.0,-100.00,NNE,27,2.0,7.0,63,0.00,,,0.52,251.000000,,2013-08-31 00:11:00,
2013-08-30 19:42:00,69.0,61.0,-100.00,East,91,2.0,7.0,77,0.00,,,0.52,87.000000,,2013-08-31 00:42:00,
2013-08-30 19:52:00,69.0,61.0,-100.00,East,91,2.0,7.0,77,0.00,,,0.52,87.000000,,2013-08-31 00:52:00,
2013-08-30 20:01:00,69.0,61.0,-100.00,East,91,2.0,7.0,77,0.00,,,0.52,87.000000,,2013-08-31 01:01:00,
2013-08-30 20:11:00,69.0,61.0,-100.00,East,91,2.0,7.0,77,0.00,,,0.52,87.000000,,2013-08-31 01:11:00,
2013-08-30 20:42:00,65.0,61.0,-100.00,ESE,111,2.0,4.0,86,0.00,,,0.52,10.000000,,2013-08-31 01:42:00,
2013-08-30 20:52:00,65.0,61.0,-100.00,ESE,111,2.0,4.0,86,0.00,,,0.52,10.000000,,2013-08-31 01:52:00,
2013-08-30 21:02:00,65.0,61.0,-100.00,ESE,111,2.0,4.0,86,0.00,,,0.52,10.000000,,2013-08-31 02:02:00,
2013-08-30 21:12:00,65.0,61.0,-100.00,ESE,111,2.0,4.0,86,0.00,,,0.52,10.000000,,2013-08-31 02:12:00,
2013-08-30 21:42:00,64.0,61.0,-100.00,SSE,152,6.0,11.0,90,0.00,,,0.11,1.000000,,2013-08-31 02:42:00,
2013-08-30 21:52:00,64.0,61.0,-100.00,SSE,152,6.0,11.0,90,0.00,,,0.11,1.000000,,2013-08-31 02:52:00,
2013-08-30 22:02:00,64.0,61.0,-100.00,SSE,152,6.0,11.0,90,0.00,,,0.11,1.000000,,2013-08-31 03:02:00,
2013-08-30 22:12:00,64.0,61.0,-100.00,SSE,152,6.0,11.0,90,0.00,,,0.11,1.000000,,2013-08-31 03:12:00,
2013-08-30 22:13:00,62.0,60.0,-100.00,SSE,157,7.0,11.0,92,0.00,,,0.05,1.000000,,2013-08-31 03:13:00,
2013-08-30 22:45:00,62.0,60.0,-100.00,SSE,157,7.0,11.0,92,0.00,,,0.05,1.000000,,2013-08-31 03:45:00,
2013-08-30 22:54:00,62.0,60.0,-100.00,SSE,157,7.0,11.0,92,0.00,,,0.05,1.000000,,2013-08-31 03:54:00,
2013-08-30 23:05:00,62.0,60.0,-100.00,SSE,157,7.0,11.0,92,0.00,,,0.05,1.000000,,2013-08-31 04:05:00,
2013-08-30 23:13:00,61.0,60.0,-100.00,SSE,158,6.0,12.0,95,0.00,,,0.00,1.000000,,2013-08-31 04:13:00,
2013-08-30 23:44:00,61.0,60.0,-100.00,SSE,158,6.0,12.0,95,0.00,,,0.00,1.000000,,2013-08-31 04:44:00,
2013-08-30 23:54:00,61.0,60.0,-100.00,SSE,158,6.0,12.0,95,0.00,,,0.00,1.000000,,2013-08-31 04:54:00,